Weather History for Capo Bellavista, Italy

Change the Weather History Date:

Saturday, June 29, 2013

  Actual Average (LIED) Record (LIED)
Temperature  
Mean Temperature 72 °F -  
Max Temperature 81 °F 83 °F 98 °F (1998)
Min Temperature 62 °F 70 °F 59 °F (2007)
Cooling Degree Days 6    
Growing Degree Days 22 (Base 50)    
Moisture  
Dew Point 59 °F    
Average Humidity 68    
Maximum Humidity 94    
Minimum Humidity 41    
Precipitation  
Precipitation 0.00 in 0.01 in - ()
Sea Level Pressure  
Sea Level Pressure 30.07 in    
Wind  
Wind Speed 7 mph ()    
Max Wind Speed 13 mph    
Max Gust Speed -    
Visibility 7.9 miles    
Events      
Averages and records for this station are not official NWS values.
T = Trace of Precipitation, MM = Missing Value Source: Averaged Metar Reports

Daily Weather History Graph

Daily Weather History Graph

Search for Another Location

Airport:

Trip Planner

Search our weather history database for the weather conditions in past years. The results will help you decide how hot, cold, wet, or windy it might be!

Date:

Astronomy

Jun. 29, 2013 Rise Set
Actual Time 5:55 AM CEST 8:53 PM CEST
Civil Twilight 5:22 AM CEST 9:26 PM CEST
Nautical Twilight 4:41 AM CEST 10:07 PM CEST
Astronomical Twilight 3:52 AM CEST 10:56 PM CEST
Moon 12:14 AM CEST (6/29) 12:49 PM CEST (6/29)
Length of Visible Light 16h 03m
Length of Day
14h 58m
Waning Gibbous, 58% of the Moon is Illuminated
Jun 29
Waning Gibbous
Jun 30
Last Quarter
Jul 8
New
Jul 16
First Quarter
Jul 22
Full

Hourly Weather History & Observations

Time (CEST) Temp. Heat Index Dew Point Humidity Pressure Visibility Wind Dir Wind Speed Gust Speed Precip Events Conditions
12:55 AM 64.4 °F - 62.6 °F 94% 30.06 in - WNW 11.5 mph - N/A   Clear
1:55 AM 62.6 °F - 60.8 °F 94% 30.06 in - NW 11.5 mph - N/A   Clear
2:00 AM 63 °F - 61 °F 92% 30.06 in 12 mi NW 11.5 mph - -   Partly Cloudy
2:55 AM 64.4 °F - 53.6 °F 68% 30.06 in - WNW 9.2 mph - N/A   Clear
3:55 AM 64.4 °F - 53.6 °F 68% 30.06 in - WNW 10.4 mph - N/A   Clear
4:55 AM 64.4 °F - 55.4 °F 73% 30.06 in - North 5.8 mph - N/A   Clear
5:55 AM 64.4 °F - 55.4 °F 73% 30.04 in - NNW 4.6 mph - N/A   Clear
6:55 AM 62.6 °F - 48.2 °F 59% 30.04 in - NW 3.5 mph - N/A   Clear
7:55 AM 66.2 °F - 51.8 °F 60% 30.06 in - North 3.5 mph - N/A   Clear
8:00 AM 66 °F - 52 °F 51% 30.06 in 12 mi North 3.5 mph - -  
8:55 AM 68.0 °F - 53.6 °F 60% 30.06 in - Calm Calm - N/A   Clear
9:55 AM 71.6 °F - 57.2 °F 60% 30.06 in - SE 4.6 mph - N/A   Clear
10:55 AM 77.0 °F - 59.0 °F 54% 30.09 in - ESE 6.9 mph - N/A   Clear
11:55 AM 78.8 °F - 59.0 °F 51% 30.06 in - East 9.2 mph - N/A   Clear
12:55 PM 80.6 °F 81.5 °F 60.8 °F 51% 30.06 in - North 10.4 mph - N/A   Clear
1:55 PM 77.0 °F - 57.2 °F 50% 30.09 in 6.2 mi East 12.7 mph - N/A   Partly Cloudy
2:00 PM 77 °F - 58 °F 41% 30.08 in 12 mi East 12.7 mph - -   Scattered Clouds
2:55 PM 75.2 °F - 59.0 °F 57% 30.09 in 6.2 mi East 11.5 mph - N/A   Partly Cloudy
3:55 PM 75.2 °F - 60.8 °F 61% 30.06 in 6.2 mi ESE 9.2 mph - N/A   Partly Cloudy
4:55 PM 75.2 °F - 62.6 °F 65% 30.09 in 6.2 mi ESE 8.1 mph - N/A   Partly Cloudy
5:55 PM 73.4 °F - 62.6 °F 69% 30.09 in 6.2 mi ESE 6.9 mph - N/A   Partly Cloudy
6:55 PM 73.4 °F - 62.6 °F 69% 30.06 in 6.2 mi ESE 5.8 mph - N/A   Partly Cloudy
7:55 PM 71.6 °F - 62.6 °F 73% 30.06 in 6.2 mi South 3.5 mph - N/A   Scattered Clouds
8:00 PM 71 °F - 62 °F 65% 30.06 in 12 mi South 3.5 mph - -   Partly Cloudy
8:55 PM 69.8 °F - 64.4 °F 83% 30.06 in 6.2 mi South 2.3 mph - N/A   Partly Cloudy
9:55 PM 68.0 °F - 62.6 °F 83% 30.06 in 6.2 mi SSW 3.5 mph - N/A   Partly Cloudy
10:55 PM 66.2 °F - 62.6 °F 88% 30.09 in 6.2 mi SSW 3.5 mph - N/A   Scattered Clouds
11:55 PM 64.4 °F - 62.6 °F 94% 30.09 in - WNW 8.1 mph - N/A   Clear